H1 CPF 2 NER 2023 7 1 9 182 01 glonass143 H2 2007501 9143 46805 2023 7 1 0 0 0 2023 7 4 23 45 0 900 1 1 0 0 0 1 H9 10 0 60126 0.00000 0 -3920850.140 17850481.284 17799573.893 10 0 60126 900.00000 0 -5110089.151 19533511.317 15590287.970 10 0 60126 1800.00000 0 -6011127.509 21058106.737 13078228.371 10 0 60126 2700.00000 0 -6635077.310 22363899.921 10312103.361 10 0 60126 3600.00000 0 -7004811.598 23396057.826 7345589.972 10 0 60126 4500.00000 0 -7153744.818 24107587.290 4236295.099 10 0 60126 5400.00000 0 -7124169.813 24461333.112 1044636.707 10 0 60126 6300.00000 0 -6965221.968 24431583.916 -2167333.038 10 0 60126 7200.00000 0 -6730557.166 24005217.060 -5337139.372 10 0 60126 8100.00000 0 -6475842.612 23182333.236 -8403106.981 10 0 60126 9000.00000 0 -6256167.748 21976352.900 -11305567.881 10 0 60126 9900.00000 0 -6123486.052 20413569.605 -13988030.584 10 0 60126 10800.00000 0 -6124197.225 18532178.282 -16398286.940 10 0 60126 11700.00000 0 -6296973.324 16380818.898 -18489434.342 10 0 60126 12600.00000 0 -6670921.926 14016696.377 -20220792.830 10 0 60126 13500.00000 0 -7264164.942 11503355.569 -21558698.975 10 0 60126 14400.00000 0 -8082893.956 8908204.415 -22477161.063 10 0 60126 15300.00000 0 -9120942.609 6299888.917 -22958362.999 10 0 60126 16200.00000 0 -10359894.592 3745629.459 -22993007.464 10 0 60126 17100.00000 0 -11769723.122 1308629.321 -22580492.107 10 0 60126 18000.00000 0 -13309935.302 -954336.995 -21728915.781 10 0 60126 18900.00000 0 -14931173.531 -2995055.906 -20454915.141 10 0 60126 19800.00000 0 -16577206.883 -4775639.523 -18783335.125 10 0 60126 20700.00000 0 -18187228.955 -6269850.745 -16746740.050 10 0 60126 21600.00000 0 -19698365.847 -7463934.949 -14384775.019 10 0 60126 22500.00000 0 -21048289.047 -8356925.250 -11743390.265 10 0 60126 23400.00000 0 -22177823.587 -8960410.421 -8873943.711 10 0 60126 24300.00000 0 -23033442.018 -9297777.095 -5832199.390 10 0 60126 25200.00000 0 -23569539.551 -9402959.941 -2677241.451 10 0 60126 26100.00000 0 -23750394.933 -9318754.032 529674.882 10 0 60126 27000.00000 0 -23551734.874 -9094762.002 3726312.789 10 0 60126 27900.00000 0 -22961836.546 -8785063.684 6850660.477 10 0 60126 28800.00000 0 -21982122.091 -8445707.427 9842131.408 10 0 60126 29700.00000 0 -20627220.385 -8132129.504 12642734.866 10 0 60126 30600.00000 0 -18924493.562 -7896610.729 15198194.465 10 0 60126 31500.00000 0 -16913048.027 -7785877.607 17458993.314 10 0 60126 32400.00000 0 -14642271.037 -7838948.964 19381326.250 10 0 60126 33300.00000 0 -12169953.386 -8085318.588 20927941.519 10 0 60126 34200.00000 0 -9560075.654 -8543550.237 22068856.393 10 0 60126 35100.00000 0 -6880349.176 -9220344.135 22781933.712 10 0 60126 36000.00000 0 -4199612.674 -10110114.503 23053308.866 10 0 60126 36900.00000 0 -1585191.459 -11195096.516 22877659.344 10 0 60126 37800.00000 0 899672.583 -12445979.165 22258311.791 10 0 60126 38700.00000 0 3198214.818 -13823038.776 21207184.227 10 0 60126 39600.00000 0 5262267.239 -15277727.099 19744564.011 10 0 60126 40500.00000 0 7054016.274 -16754648.905 17898724.974 10 0 60126 41400.00000 0 8547326.657 -18193847.593 15705390.058 10 0 60126 42300.00000 0 9728576.669 -19533304.063 13207048.766 10 0 60126 43200.00000 0 10596970.295 -20711544.768 10452141.546 10 0 60126 44100.00000 0 11164313.469 -21670249.738 7494125.980 10 0 60126 45000.00000 0 11454264.029 -22356750.778 4390442.304 10 0 60126 45900.00000 0 11501087.226 -22726314.174 1201398.029 10 0 60126 46800.00000 0 11347969.562 -22744110.823 -2011006.634 10 0 60126 47700.00000 0 11044962.688 -22386789.605 -5184289.232 10 0 60126 48600.00000 0 10646644.955 -21643586.331 -8256707.212 10 0 60126 49500.00000 0 10209600.398 -20516920.216 -11168467.081 10 0 60126 50400.00000 0 9789822.889 -19022451.509 -13862896.059 10 0 60126 51300.00000 0 9440156.378 -17188596.810 -16287552.522 10 0 60126 52200.00000 0 9207880.649 -15055521.628 -18395252.860 10 0 60126 53100.00000 0 9132545.696 -12673651.925 -20144994.160 10 0 60126 54000.00000 0 9244147.123 -10101766.694 -21502754.503 10 0 60126 54900.00000 0 9561720.318 -7404751.174 -22442155.212 10 0 60126 55800.00000 0 10092413.218 -4651104.529 -22944972.375 10 0 60126 56700.00000 0 10831077.090 -1910305.843 -23001487.992 10 0 60126 57600.00000 0 11760392.733 749851.965 -22610674.384 10 0 60126 58500.00000 0 12851526.839 3265849.629 -21780208.707 10 0 60126 59400.00000 0 14065290.885 5580843.270 -20526317.720 10 0 60126 60300.00000 0 15353753.723 7646781.249 -18873456.209 10 0 60126 61200.00000 0 16662239.979 9426149.010 -16853825.592 10 0 60126 62100.00000 0 17931630.091 10893270.558 -14506742.325 10 0 60126 63000.00000 0 19100865.174 12035113.808 -11877868.558 10 0 60126 63900.00000 0 20109551.239 12851567.879 -9018320.230 10 0 60126 64800.00000 0 20900553.146 13355182.567 -5983670.149 10 0 60126 65700.00000 0 21422469.101 13570382.773 -2832865.659 10 0 60126 66600.00000 0 21631881.571 13532192.648 372917.768 10 0 60126 67500.00000 0 21495289.947 13284524.723 3571464.492 10 0 60126 68400.00000 0 20990643.730 12878107.418 6700724.960 10 0 60126 69300.00000 0 20108411.852 12368139.290 9700016.702 10 0 60126 70200.00000 0 18852143.238 11811769.636 12511196.827 10 0 60126 71100.00000 0 17238495.000 11265512.021 15079783.533 10 0 60126 72000.00000 0 15296726.881 10782699.808 17356005.314 10 0 60126 72900.00000 0 13067682.667 10411090.710 19295758.163 10 0 60126 73800.00000 0 10602300.447 10190720.884 20861453.048 10 0 60126 74700.00000 0 7959712.961 10152098.477 22022738.021 10 0 60126 75600.00000 0 5205016.001 10314812.258 22757081.845 10 0 60126 76500.00000 0 2406796.299 10686613.711 23050208.490 10 0 60126 77400.00000 0 -365479.810 11263011.251 22896374.513 10 0 60126 78300.00000 0 -3044110.056 12027394.115 22298484.129 10 0 60126 79200.00000 0 -5565723.964 12951681.505 21268039.491 10 0 60126 80100.00000 0 -7873669.332 13997470.806 19824926.622 10 0 60126 81000.00000 0 -9920119.409 15117637.907 17997040.286 10 0 60126 81900.00000 0 -11667814.011 16258323.678 15819754.010 10 0 60126 82800.00000 0 -13091362.638 17361224.256 13335244.394 10 0 60126 83700.00000 0 -14178055.600 18366089.706 10591681.700 10 0 60126 84600.00000 0 -14928149.488 19213326.415 7642301.460 10 0 60126 85500.00000 0 -15354615.149 19846593.644 4544374.494 10 0 60127 0.00000 0 -15482358.936 20215284.392 1358095.268 10 0 60127 900.00000 0 -15346950.249 20276785.259 -1854591.468 10 0 60127 1800.00000 0 -14992909.278 19998418.379 -5031198.256 10 0 60127 2700.00000 0 -14471628.037 19358982.753 -8109918.235 10 0 60127 3600.00000 0 -13839012.998 18349827.935 -11030835.257 10 0 60127 4500.00000 0 -13152950.044 16975413.581 -13737097.957 10 0 60127 5400.00000 0 -12470699.852 15253329.942 -16176033.741 10 0 60127 6300.00000 0 -11846334.841 13213777.254 -18300180.240 10 0 60127 7200.00000 0 -11328326.917 10898525.053 -20068213.550 10 0 60127 8100.00000 0 -10957388.684 8359394.337 -21445754.893 10 0 60127 9000.00000 0 -10764659.810 5656325.674 -22406039.947 10 0 60127 9900.00000 0 -10770315.398 2855113.679 -22930437.960 10 0 60127 10800.00000 0 -10982655.156 24902.180 -23008810.880 10 0 60127 11700.00000 0 -11397711.638 -2764455.807 -22639705.956 10 0 60127 12600.00000 0 -11999393.851 -5445063.635 -21830378.512 10 0 60127 13500.00000 0 -12760159.815 -7953561.659 -20596644.885 10 0 60127 14400.00000 0 -13642189.394 -10233516.218 -18962568.775 10 0 60127 15300.00000 0 -14599007.623 -12237518.360 -16959987.407 10 0 60127 16200.00000 0 -15577489.767 -13928906.008 -14627886.964 10 0 60127 17100.00000 0 -16520163.369 -15283039.091 -12011639.631 10 0 60127 18000.00000 0 -17367709.961 -16288075.889 -9162117.284 10 0 60127 18900.00000 0 -18061560.798 -16945219.799 -6134699.283 10 0 60127 19800.00000 0 -18546477.022 -17268427.933 -2988193.857 10 0 60127 20700.00000 0 -18773005.362 -17283595.470 216305.653 10 0 60127 21600.00000 0 -18699705.789 -17027251.669 3416607.225 10 0 60127 22500.00000 0 -18295057.233 -16544823.800 6550626.034 10 0 60127 23400.00000 0 -17538961.072 -15888543.225 9557586.209 10 0 60127 24300.00000 0 -16423779.065 -15115082.661 12379195.220 10 0 60127 25200.00000 0 -14954861.947 -14283024.592 14960768.362 10 0 60127 26100.00000 0 -13150546.197 -13450267.599 17252281.936 10 0 60127 27000.00000 0 -11041618.619 -12671479.593 19209335.369 10 0 60127 27900.00000 0 -8670270.344 -11995704.673 20794004.417 10 0 60127 28800.00000 0 -6088582.955 -11464223.679 21975569.739 10 0 60127 29700.00000 0 -3356608.577 -11108757.738 22731107.562 10 0 60127 30600.00000 0 -540122.366 -10950089.722 23045931.687 10 0 60127 31500.00000 0 2291860.747 -10997161.230 22913878.710 10 0 60127 32400.00000 0 5069703.542 -11246682.911 22337431.103 10 0 60127 33300.00000 0 7725791.192 -11683274.798 21327675.568 10 0 60127 34200.00000 0 10197094.726 -12280131.333 19904096.924 10 0 60127 35100.00000 0 12427548.019 -13000183.970 18094210.715 10 0 60127 36000.00000 0 14370140.444 -13797713.448 15933040.565 10 0 60127 36900.00000 0 15988638.657 -14620344.888 13462449.307 10 0 60127 37800.00000 0 17258866.122 -15411342.522 10730335.734 10 0 60127 38700.00000 0 18169487.084 -16112107.921 7789711.598 10 0 60127 39600.00000 0 18722262.183 -16664776.541 4697676.120 10 0 60127 40500.00000 0 18931765.017 -17014802.737 1514307.565 10 0 60127 41400.00000 0 18824571.619 -17113423.437 -1698506.559 10 0 60127 42300.00000 0 18437957.136 -16919895.338 -4878277.519 10 0 60127 43200.00000 0 17818155.057 -16403409.767 -7963137.458 10 0 60127 44100.00000 0 17018252.962 -15544602.835 -10893050.930 10 0 60127 45000.00000 0 16095814.393 -14336595.530 -13610991.299 10 0 60127 45900.00000 0 15110328.136 -12785518.395 -16064058.210 10 0 60127 46800.00000 0 14120593.496 -10910497.264 -18204513.566 10 0 60127 47700.00000 0 13182152.832 -8743099.499 -19990715.266 10 0 60127 48600.00000 0 12344880.359 -6326262.981 -21387930.175 10 0 60127 49500.00000 0 11650829.413 -3712751.989 -22369010.466 10 0 60127 50400.00000 0 11132429.148 -963204.022 -22914920.281 10 0 60127 51300.00000 0 10811106.590 1856151.315 -23015102.808 10 0 60127 52200.00000 0 10696391.779 4676006.570 -22667681.060 10 0 60127 53100.00000 0 10785543.199 7426619.434 -21879488.903 10 0 60127 54000.00000 0 11063708.584 10040474.844 -20665932.173 10 0 60127 54900.00000 0 11504613.628 12454855.925 -19050682.969 10 0 60127 55800.00000 0 12071748.816 14614217.402 -17065213.374 10 0 60127 56700.00000 0 12720003.673 16472263.498 -14748177.928 10 0 60127 57600.00000 0 13397678.846 17993644.767 -12144657.058 10 0 60127 58500.00000 0 14048790.630 19155204.263 -9305276.384 10 0 60127 59400.00000 0 14615570.192 19946722.396 -6285219.255 10 0 60127 60300.00000 0 15041051.684 20371130.821 -3143151.900 10 0 60127 61200.00000 0 15271639.681 20444187.977 59917.593 10 0 60127 62100.00000 0 15259547.417 20193631.404 3261824.090 10 0 60127 63000.00000 0 14965002.764 19657843.906 6400450.793 10 0 60127 63900.00000 0 14358128.869 18884090.791 9414931.677 10 0 60127 64800.00000 0 13420420.033 17926403.286 12246827.680 10 0 60127 65700.00000 0 12145750.541 16843197.708 14841254.100 10 0 60127 66600.00000 0 10540873.716 15694730.777 17147937.724 10 0 60127 67500.00000 0 8625389.700 14540497.933 19122183.835 10 0 60127 68400.00000 0 6431182.558 13436683.526 20725735.137 10 0 60127 69300.00000 0 4001349.194 12433769.345 21927506.761 10 0 60127 70200.00000 0 1388663.505 11574401.046 22704183.958 10 0 60127 71100.00000 0 -1346361.790 10891601.208 23040671.571 10 0 60127 72000.00000 0 -4137736.628 10407403.252 22930387.043 10 0 60127 72900.00000 0 -6916486.148 10131963.039 22375391.479 10 0 60127 73800.00000 0 -9613272.472 10063185.156 21386356.015 10 0 60127 74700.00000 0 -12161038.367 10186879.674 19982363.657 10 0 60127 75600.00000 0 -14497564.273 10477443.117 18190549.600 10 0 60127 76500.00000 0 -16567833.440 10899035.613 16045585.955 10 0 60127 77400.00000 0 -18326107.366 11407205.350 13589019.757 10 0 60127 78300.00000 0 -19737625.420 11950892.566 10868475.956 10 0 60127 79200.00000 0 -20779857.768 12474729.106 7936739.898 10 0 60127 80100.00000 0 -21443259.084 12921536.652 4850736.407 10 0 60127 81000.00000 0 -21731491.272 13234918.014 1670424.937 10 0 60127 81900.00000 0 -21661105.676 13361831.385 -1542367.753 10 0 60127 82800.00000 0 -21260698.057 13255037.787 -4725154.327 10 0 60127 83700.00000 0 -20569572.040 12875316.978 -7816008.852 10 0 60127 84600.00000 0 -19635967.655 12193356.628 -10754779.447 10 0 60127 85500.00000 0 -18514930.203 11191233.347 -13484266.958 10 0 60128 0.00000 0 -17265910.138 9863421.541 -15951345.626 10 0 60128 900.00000 0 -15950195.255 8217285.249 -18108004.405 10 0 60128 1800.00000 0 -14628285.925 6273032.699 -19912284.779 10 0 60128 2700.00000 0 -13357322.376 4063131.949 -21329100.919 10 0 60128 3600.00000 0 -12188674.500 1631212.835 -22330922.772 10 0 60128 4500.00000 0 -11165795.160 -969500.222 -22898310.254 10 0 60128 5400.00000 0 -10322427.310 -3678159.508 -23020288.268 10 0 60128 6300.00000 0 -9681239.925 -6428587.615 -22694555.671 10 0 60128 7200.00000 0 -9252949.426 -9151798.085 -21927524.562 10 0 60128 8100.00000 0 -9035962.650 -11778638.454 -20734189.603 10 0 60128 9000.00000 0 -9016555.353 -14242446.083 -19137830.268 10 0 60128 9900.00000 0 -9169577.630 -16481606.625 -17169552.174 10 0 60128 10800.00000 0 -9459655.451 -18441909.214 -14867676.649 10 0 60128 11700.00000 0 -9842836.627 -20078600.966 -12276990.593 10 0 60128 12600.00000 0 -10268610.877 -21358055.983 -9447871.477 10 0 60128 13500.00000 0 -10682217.924 -22258990.273 -6435304.661 10 0 60128 14400.00000 0 -11027145.541 -22773172.992 -3297812.354 10 0 60128 15300.00000 0 -11247711.488 -22905605.550 -96315.335 10 0 60128 16200.00000 0 -11291619.935 -22674162.429 3107050.237 10 0 60128 17100.00000 0 -11112384.095 -22108710.081 6250137.742 10 0 60128 18000.00000 0 -10671512.635 -21249742.073 9271993.201 10 0 60128 18900.00000 0 -9940367.442 -20146588.730 12114033.279 10 0 60128 19800.00000 0 -8901614.274 -18855277.162 14721175.566 10 0 60128 20700.00000 0 -7550204.938 -17436131.830 17042899.609 10 0 60128 21600.00000 0 -5893849.247 -15951216.386 19034218.746 10 0 60128 22500.00000 0 -3952956.245 -14461723.673 20656544.702 10 0 60128 23400.00000 0 -1760046.200 -13025422.725 21878428.980 10 0 60128 24300.00000 0 641343.333 -11694268.838 22676167.530 10 0 60128 25200.00000 0 3198213.247 -10512275.827 23034257.671 10 0 60128 26100.00000 0 5850057.288 -9513738.637 22945698.879 10 0 60128 27000.00000 0 8531135.582 -8721879.845 22412131.819 10 0 60128 27900.00000 0 11172974.591 -8147976.107 21443812.730 10 0 60128 28800.00000 0 13706991.179 -7791000.764 20059423.201 10 0 60128 29700.00000 0 16067133.154 -7637797.508 18285718.192 10 0 60128 30600.00000 0 18192427.600 -7663777.908 16157018.102 10 0 60128 31500.00000 0 20029331.587 -7834113.826 13714553.595 10 0 60128 32400.00000 0 21533787.689 -8105374.866 11005674.805 10 0 60128 33300.00000 0 22672898.517 -8427542.179 8082939.238 10 0 60128 34200.00000 0 23426150.027 -8746313.804 5003095.429 10 0 60128 35100.00000 0 23786131.974 -9005603.995 1825981.679 10 0 60128 36000.00000 0 23758724.893 -9150130.448 -1386638.752 10 0 60128 36900.00000 0 23362745.365 -9127979.147 -4572282.963 10 0 60128 37800.00000 0 22629064.322 -8893037.175 -7668970.194 10 0 60128 38700.00000 0 21599235.485 -8407189.157 -10616435.449 10 0 60128 39600.00000 0 20323691.980 -7642182.898 -13357310.358 10 0 60128 40500.00000 0 18859587.506 -6581083.718 -15838247.382 10 0 60128 41400.00000 0 17268373.585 -5219254.503 -18010964.676 10 0 60128 42300.00000 0 15613215.539 -3564818.656 -19833190.616 10 0 60128 43200.00000 0 13956356.490 -1638585.122 -21269489.282 10 0 60128 44100.00000 0 12356540.693 526562.517 -22291950.708 10 0 60128 45000.00000 0 10866604.647 2886788.173 -22880732.571 10 0 60128 45900.00000 0 9531337.091 5388890.387 -23024443.120 10 0 60128 46800.00000 0 8385697.278 7972288.718 -22720358.276 10 0 60128 47700.00000 0 7453465.595 10571326.881 -21974469.172 10 0 60128 48600.00000 0 6746382.148 13117796.964 -20801359.638 10 0 60128 49500.00000 0 6263808.257 15543579.862 -19223916.424 10 0 60128 50400.00000 0 5992923.721 17783292.212 -17272878.115 10 0 60128 51300.00000 0 5909450.126 19776829.933 -14986231.784 10 0 60128 52200.00000 0 5978868.353 21471702.811 -12408469.314 10 0 60128 53100.00000 0 6158077.671 22825063.328 -9589718.076 10 0 60128 54000.00000 0 6397425.285 23805345.755 -6584763.060 10 0 60128 54900.00000 0 6643019.661 24393447.910 -3451979.697 10 0 60128 55800.00000 0 6839229.149 24583407.106 -252198.386 10 0 60128 56700.00000 0 6931259.685 24382543.082 2952476.990 10 0 60128 57600.00000 0 6867702.258 23811063.034 6099873.397 10 0 60128 58500.00000 0 6602942.191 22901146.313 9128952.338 10 0 60128 59400.00000 0 6099328.334 21695548.087 11980989.563 10 0 60128 60300.00000 0 5329010.464 20245781.168 14600708.170 10 0 60128 61200.00000 0 4275367.250 18609952.622 16937343.473 10 0 60128 62100.00000 0 2933964.328 16850345.852 18945619.636 10 0 60128 63000.00000 0 1313001.666 15030849.106 20586619.897 10 0 60128 63900.00000 0 -566769.367 13214337.442 21828534.309 10 0 60128 64800.00000 0 -2672656.890 11460116.761 22647271.351 10 0 60128 65700.00000 0 -4961143.219 9821535.695 23026922.260 10 0 60128 66600.00000 0 -7379458.520 8343864.074 22960069.541 10 0 60128 67500.00000 0 -9867549.593 7062525.498 22447933.917 10 0 60128 68400.00000 0 -12360363.648 6001756.961 21500356.708 10 0 60128 69300.00000 0 -14790353.741 5173750.845 20135617.497 10 0 60128 70200.00000 0 -17090103.125 4578314.696 18380089.865 10 0 60128 71100.00000 0 -19194960.528 4203062.771 16267740.807 10 0 60128 72000.00000 0 -21045577.355 4024131.283 13839482.462 10 0 60128 72900.00000 0 -22590241.455 4007387.360 11142387.580 10 0 60128 73800.00000 0 -23786910.023 4110080.881 8228782.971 10 0 60128 74700.00000 0 -24604856.341 4282869.619 5155237.823 10 0 60128 75600.00000 0 -25025860.799 4472131.978 1981466.122 10 0 60128 76500.00000 0 -25044895.660 4622469.180 -1230835.550 10 0 60128 77400.00000 0 -24670274.104 4679290.308 -4419191.892 10 0 60128 78300.00000 0 -23923256.764 4591369.796 -7521570.407 10 0 60128 79200.00000 0 -22837131.972 4313267.813 -10477595.971 10 0 60128 80100.00000 0 -21455808.306 3807509.662 -13229733.840 10 0 60128 81000.00000 0 -19831978.816 3046430.436 -15724417.122 10 0 60128 81900.00000 0 -18024934.495 2013605.414 -17913095.974 10 0 60128 82800.00000 0 -16098119.403 704804.321 -19753187.434 10 0 60128 83700.00000 0 -14116530.655 -871572.131 -21208907.064 10 0 60128 84600.00000 0 -12144072.833 -2694593.022 -22251966.086 10 0 60128 85500.00000 0 -10240978.023 -4731432.075 -22862120.552 10 0 60129 0.00000 0 -8461399.746 -6938510.598 -23027562.176 10 0 60129 900.00000 0 -6851280.290 -9263102.519 -22745143.634 10 0 60129 1800.00000 0 -5446582.457 -11645331.914 -22020434.300 10 0 60129 2700.00000 0 -4271955.605 -14020483.869 -20867606.058 10 0 60129 3600.00000 0 -3339892.993 -16321529.644 -19309151.510 10 0 60129 4500.00000 0 -2650413.316 -18481762.123 -17375440.548 10 0 60129 5400.00000 0 -2191278.307 -20437431.663 -15104124.156 10 0 60129 6300.00000 0 -1938735.601 -22130272.637 -12539397.241 10 0 60129 7200.00000 0 -1858753.981 -23509815.479 -9731135.060 10 0 60129 8100.00000 0 -1908697.464 -24535388.116 -6733920.207 10 0 60129 9000.00000 0 -2039366.284 -25177723.643 -3605979.315 10 0 60129 9900.00000 0 -2197317.531 -25420107.659 -408050.407 10 0 60129 10800.00000 0 -2327366.503 -25259017.961 2797796.876 10 0 60129 11700.00000 0 -2375162.473 -24704230.659 5949365.063 10 0 60129 12600.00000 0 -2289729.542 -23778389.037 8985533.115 10 0 60129 13500.00000 0 -2025865.015 -22516053.975 11847437.863 10 0 60129 14400.00000 0 -1546293.844 -20962276.285 14479609.901 10 0 60129 15300.00000 0 -823488.143 -19170751.068 16831042.261 10 0 60129 16200.00000 0 158925.073 -17201631.415 18856171.803 10 0 60129 17100.00000 0 1405227.551 -15119092.579 20515755.007 10 0 60129 18000.00000 0 2907184.729 -12988747.836 21777622.022 10 0 60129 18900.00000 0 4644150.707 -10875023.076 22617295.187 10 0 60129 19800.00000 0 6583700.002 -8838598.581 23018460.730 10 0 60129 20700.00000 0 8682761.162 -6934023.496 22973285.019 10 0 60129 21600.00000 0 10889206.574 -5207601.281 22482569.425 10 0 60129 22500.00000 0 13143833.944 -3695633.154 21555740.692 10 0 60129 23400.00000 0 15382658.568 -2423091.877 20210676.524 10 0 60129 24300.00000 0 17539422.482 -1402780.490 18473369.014 10 0 60129 25200.00000 0 19548217.218 -635010.613 16377431.416 10 0 60129 26100.00000 0 21346111.712 -107813.467 13963456.732 10 0 60129 27000.00000 0 22875676.172 202325.435 11278239.429 10 0 60129 27900.00000 0 24087296.549 329238.921 8373874.389 10 0 60129 28800.00000 0 24941182.410 315409.908 5306749.860 10 0 60129 29700.00000 0 25408983.475 209932.859 2136453.567 10 0 60129 30600.00000 0 25474946.192 66191.458 -1075386.869 10 0 60129 31500.00000 0 25136560.839 -60648.621 -4266306.300 10 0 60129 32400.00000 0 24404671.138 -116224.876 -7374223.232 10 0 60129 33300.00000 0 23303041.034 -49530.465 -10338655.258 10 0 60129 34200.00000 0 21867396.409 184675.381 -13101904.104 10 0 60129 35100.00000 0 20143981.797 623702.449 -15610186.304 10 0 60129 36000.00000 0 18187692.767 1295103.190 -17814686.683 10 0 60129 36900.00000 0 16059862.654 2215263.519 -19672513.472 10 0 60129 37800.00000 0 13825796.819 3388471.536 -21147536.091 10 0 60129 38700.00000 0 11552158.126 4806504.617 -22211089.163 10 0 60129 39600.00000 0 9304313.375 6448753.212 -22842529.127 10 0 60129 40500.00000 0 7143751.751 8282876.996 -23029632.933 10 0 60129 41400.00000 0 5125682.993 10265966.482 -22768831.445 10 0 60129 42300.00000 0 3296915.131 12346161.908 -22065273.501 10 0 60129 43200.00000 0 1694099.609 14464662.014 -20932719.797 10 0 60129 44100.00000 0 342415.916 16558038.945 -19393269.115 10 0 60129 45000.00000 0 -745250.673 18560762.678 -17476922.514 10 0 60129 45900.00000 0 -1568605.541 20407829.623 -15220994.276 10 0 60129 46800.00000 0 -2139704.724 22037385.633 -12669381.242 10 0 60129 47700.00000 0 -2482190.357 23393233.911 -9871704.974 10 0 60129 48600.00000 0 -2630035.507 24427123.100 -6882343.645 10 0 60129 49500.00000 0 -2625852.875 25100720.113 -3759372.654 10 0 60129 50400.00000 0 -2518840.089 25387185.425 -563434.840 10 0 60129 51300.00000 0 -2362449.475 25272285.335 2643437.499 10 0 60129 52200.00000 0 -2211881.613 24754995.107 5799025.760 10 0 60129 53100.00000 0 -2121509.189 23847568.258 8842129.795 10 0 60129 54000.00000 0 -2142340.344 22575069.614 11713750.979 10 0 60129 54900.00000 0 -2319628.858 20974392.067 14358230.809 10 0 60129 55800.00000 0 -2690732.072 19092798.428 16724323.336 10 0 60129 56700.00000 0 -3283306.924 16986049.313 18766181.217 10 0 60129 57600.00000 0 -4113920.217 14716194.976 20444237.040 10 0 60129 58500.00000 0 -5187131.835 12349122.673 21725963.617 10 0 60129 59400.00000 0 -6495090.007 9951960.944 22586499.343 10 0 60129 60300.00000 0 -8017656.429 7590447.868 23009127.229 10 0 60129 61200.00000 0 -9723057.183 5326371.649 22985598.797 10 0 60129 62100.00000 0 -11569033.654 3215188.772 22516296.823 10 0 60129 63000.00000 0 -13504446.962 1303917.609 21610233.643 10 0 60129 63900.00000 0 -15471270.592 -370605.919 20284884.633 10 0 60129 64800.00000 0 -17406889.586 -1783038.901 18565859.329 10 0 60129 65700.00000 0 -19246611.751 -2920354.255 16486415.583 10 0 60129 66600.00000 0 -20926286.984 -3782141.978 14086825.060 10 0 60129 67500.00000 0 -22384925.909 -4380376.565 11413601.289 10 0 60129 68400.00000 0 -23567208.437 -4738660.635 8518604.201 10 0 60129 69300.00000 0 -24425776.922 -4890976.755 5458037.847 10 0 60129 70200.00000 0 -24923217.111 -4880000.342 2291360.282 10 0 60129 71100.00000 0 -25033642.821 -4755045.207 -919873.300 10 0 60129 72000.00000 0 -24743816.647 -4569729.129 -4113211.343 10 0 60129 72900.00000 0 -24053758.460 -4379459.013 -7226526.725 10 0 60129 73800.00000 0 -22976815.071 -4238843.075 -10199232.996 10 0 60129 74700.00000 0 -21539187.257 -4199140.795 -12973471.419 10 0 60129 75600.00000 0 -19778933.438 -4305859.907 -15495244.786 10 0 60129 76500.00000 0 -17744491.494 -4596603.409 -17715475.109 10 0 60129 77400.00000 0 -15492780.699 -5099258.957 -19590963.927 10 0 60129 78300.00000 0 -13086963.406 -5830608.304 -21085236.158 10 0 60129 79200.00000 0 -10593960.390 -6795416.512 -22169250.906 10 0 60129 80100.00000 0 -8081823.945 -7986040.197 -22821965.503 10 0 60129 81000.00000 0 -5617078.558 -9382572.017 -23030742.058 10 0 60129 81900.00000 0 -3262140.000 -10953515.876 -22791589.043 10 0 60129 82800.00000 0 -1072920.151 -12656964.895 -22109233.627 10 0 60129 83700.00000 0 903283.268 -14442233.014 -20997023.837 10 0 60129 84600.00000 0 2629525.032 -16251872.054 -19476662.835 10 0 60129 85500.00000 0 4080507.597 -18023989.775 -17577780.816 99